This is the latest recevied weather packets stored in our database for station/object EA5DFV. If no packets are shown the sender has not sent any weather packets the latest 1 day(s).
| Time | Temp. | Humidity | Pressure | Rain* | Wind** | Luminosity | Snow |
|---|---|---|---|---|---|---|---|
| 1778075607 | 18.89° C | 71% | 1011.3 hPa | 0 mm | - | 221 W/m² | - |
| 1778075011 | 18.89° C | 71% | 1011.2 hPa | 0 mm | - | 202 W/m² | - |
| 1778074110 | 18.89° C | 72% | 1011.4 hPa | 0 mm | - | 186 W/m² | - |
| 1778073517 | 18.89° C | 70% | 1011.5 hPa | 0 mm | - | 193 W/m² | - |
| 1778072918 | 19.44° C | 71% | 1011.4 hPa | 0 mm | - | 237 W/m² | - |
| 1778071707 | 19.44° C | 71% | 1011.5 hPa | 0 mm | - | 269 W/m² | - |
| 1778071421 | 19.44° C | 72% | 1011.6 hPa | 0 mm | - | 325 W/m² | - |
| 1778069900 | 20° C | 70% | 1011.5 hPa | 0 mm | - | 355 W/m² | - |
| 1778069311 | 20° C | 69% | 1011.6 hPa | 0 mm | - | 367 W/m² | - |
| 1778068715 | 20° C | 69% | 1011.6 hPa | 0 mm | - | 367 W/m² | - |
| 1778067506 | 21.11° C | 67% | 1011.8 hPa | 0 mm | - | 283 W/m² | - |
| 1778066914 | 21.11° C | 68% | 1011.8 hPa | 0 mm | - | 1123 W/m² | - |
| 1778066315 | 20.56° C | 69% | 1012 hPa | 0 mm | - | 1229 W/m² | - |
| 1778065410 | 20° C | 69% | 1012.1 hPa | 0 mm | - | 459 W/m² | - |
| 1778064820 | 19.44° C | 69% | 1012.2 hPa | 0 mm | - | 345 W/m² | - |
| 1778064205 | 19.44° C | 71% | 1012.1 hPa | 0 mm | - | 339 W/m² | - |
| 1778063609 | 19.44° C | 71% | 1012.1 hPa | 0 mm | - | 359 W/m² | - |
| 1778063013 | 20° C | 71% | 1012.1 hPa | 0 mm | - | 348 W/m² | - |
| 1778062704 | 20° C | 71% | 1012.1 hPa | 0 mm | - | 490 W/m² | - |
| 1778062417 | 20° C | 71% | 1012.1 hPa | 0 mm | - | 306 W/m² | - |
| 1778062111 | 19.44° C | 73% | 1012.1 hPa | 0 mm | - | 940 W/m² | - |
| 1778061816 | 19.44° C | 72% | 1012.1 hPa | 0 mm | - | 448 W/m² | - |
| 1778060008 | 20° C | 70% | 1012 hPa | 0 mm | - | 220 W/m² | - |
| 1778059399 | 20° C | 71% | 1011.8 hPa | 0 mm | - | 1078 W/m² | - |
| 1778058803 | 19.44° C | 72% | 1011.7 hPa | 0 mm | - | 371 W/m² | - |
* Rain latest hour (hover to see other rain measurements)
** Current wind speed in m/s (hover to see current wind gust speed)